Location: Arbon
(43.0005°N, 0.7472°E)
Time: 21:06:57
(UTC+00:00)

Courier 1B Rocket - Pass Details

Date: 30 November 2020
Orbit: 920 x 1202 km, 28.2° (Epoch: 23 January)

Event Time Altitude Azimuth Distance (km) Brightness Sun altitude
Exits shadow 04:44:23 - 209° (SSW) 3,304 7.5 -25.6°
Reaches altitude 10° 04:45:11 10° 205° (SSW) 3,122 7.4 -25.5°
Maximum altitude 04:50:21 19° 163° (SSE) 2,494 7.3 -24.5°
Drops below altitude 10° 04:55:30 10° 121° (ESE) 3,106 8.5 -23.6°
Sets 04:59:13 0° 105° (ESE) 4,043 9.7 -22.9°
